Location: White Mills Observatory
(37.5374°N, 86.0303°W)
Time: 19:48:40
(UTC-04:00)

Amateur Radio Satellites - All Passes

Search period start: 02 September 2014 19:18
Search period end: 03 September 2014 19:18
Location: White Mills Observatory, 37.5374°N, 86.0303°W

Satellite Date Start Highest point End Downlink Frequencies (MHz)
Time Altitude Azimuth
OPAL 02 Sep 19:46:12 19:49:37 18° 298° (WNW) 19:53:01 ?
STRAND 1 02 Sep 19:55:15 19:59:48 32° 97° (E) 20:04:20 ?
JAS-2 02 Sep 20:11:13 20:15:50 22° 264° (W) 20:20:09 435.800 - 435.900 CW/SSB, 435.910 FM
HO-68 02 Sep 20:32:22 20:37:35 22° 59° (ENE) 20:42:47 435.675 MHz FM
SO-67 02 Sep 20:43:13 20:46:16 29° 263° (W) 20:49:20 435.3500 MHz FM
STRAND 1 02 Sep 21:34:35 21:38:51 27° 292° (WNW) 21:43:06 ?
KITSAT 1 02 Sep 21:54:09 21:54:32 10° 98° (E) 21:54:54 435.175 FM
HO-68 02 Sep 22:17:32 22:24:37 68° 257° (WSW) 22:31:45 435.675 MHz FM
UKube-1 02 Sep 22:27:51 22:32:11 87° 256° (WSW) 22:36:33 145.840 MHz, 145.915 MHz
Oscar 11 02 Sep 22:30:33 22:34:49 60° 75° (ENE) 22:39:07 145.825 FM, Beacon 2401.500 USB
MaSat-1 02 Sep 22:50:23 22:54:37 42° 60° (ENE) 22:58:15 437.345 MHz
Saudisat 1A 02 Sep 22:54:40 22:59:03 79° 301° (WNW) 23:03:29 436.775 MHz
FUNcube-1 02 Sep 23:05:30 23:09:35 54° 74° (ENE) 23:13:46 145.950 - 145.970 MHz USB
KITSAT 1 02 Sep 23:40:26 23:48:26 69° 114° (ESE) 23:56:28 435.175 FM
Oscar 11 03 Sep 00:10:38 00:11:21 10° 270° (W) 00:12:05 145.825 FM, Beacon 2401.500 USB
MaSat-1 03 Sep 00:28:56 00:30:58 13° 261° (W) 00:32:52 437.345 MHz
Saudisat 1A 03 Sep 00:38:43 00:39:22 10° 319° (NW) 00:40:01 436.775 MHz
FUNcube-1 03 Sep 00:45:21 00:46:20 11° 270° (W) 00:47:20 145.950 - 145.970 MHz USB
Sapphire 03 Sep 01:37:39 01:42:06 25° 52° (NE) 01:46:30 437.095 MHz 1200 baud AX-25 AFSK
KITSAT 1 03 Sep 01:37:40 01:44:27 29° 314° (NW) 01:51:16 435.175 FM
PCSat 03 Sep 02:06:17 02:11:29 45° 57° (ENE) 02:16:39 145.825 MHz
Oscar 19 03 Sep 02:10:24 02:13:28 16° 92° (E) 02:16:32 437.125 CW, 437.150 USB
Oscar 10/S400 03 Sep 02:30:18 03:34:55 52° 218° (SW) 10:32:23 145.825 - 145.975 CW/USB, Beacon 145.810 USB
Oscar 16 03 Sep 02:44:32 02:49:19 36° 98° (E) 02:54:04 437.025 USB, Beacon 2401.1428
ITAMSAT 1 03 Sep 02:50:30 02:53:41 16° 93° (E) 02:56:51 435.822 SSB
Uribyol 2 03 Sep 02:58:57 03:02:53 21° 94° (E) 03:06:48 436.500 FM
AO-27 03 Sep 03:19:19 03:23:58 32° 97° (E) 03:28:35 436.795 MHz FM
Sapphire 03 Sep 03:20:33 03:25:42 45° 249° (WSW) 03:30:49 437.095 MHz 1200 baud AX-25 AFSK
AO-Echo 03 Sep 03:47:37 03:52:19 71° 102° (ESE) 03:57:03 ?
Oscar 19 03 Sep 03:48:03 03:53:08 56° 287° (WNW) 03:58:10 437.125 CW, 437.150 USB
SO-50 03 Sep 03:48:07 03:52:33 83° 119° (ESE) 03:57:08 436.795 FM
PCSat 03 Sep 03:50:25 03:54:34 23° 254° (WSW) 03:58:41 145.825 MHz
JAS-1B 03 Sep 03:52:26 03:58:46 59° 100° (E) 04:04:24 435.800 - 435.900 CW/SSB
Gurwin Techsat 1B 03 Sep 04:06:59 04:12:01 42° 99° (E) 04:17:01 435.225 FM
Oscar 16 03 Sep 04:24:16 04:28:27 25° 293° (WNW) 04:32:37 437.025 USB, Beacon 2401.1428
ITAMSAT 1 03 Sep 04:28:25 04:33:28 54° 288° (WNW) 04:38:31 435.822 SSB
AO-7 03 Sep 04:36:53 04:41:49 17° 92° (E) 04:46:44 29.400 - 29.500 MHz
Uribyol 2 03 Sep 04:37:37 04:42:29 41° 289° (WNW) 04:47:20 436.500 FM
Uosat F 03 Sep 04:44:41 04:45:29 10° 90° (E) 04:46:18 435.120 FM
TMSAT-1 03 Sep 04:56:00 05:01:19 89° 284° (WNW) 05:06:37 436.925 FM
AO-27 03 Sep 04:58:59 05:03:20 28° 292° (WNW) 05:07:41 436.795 MHz FM
OPAL 03 Sep 05:19:04 05:24:07 79° 73° (ENE) 05:29:17 ?
UOSAT-12 03 Sep 05:27:45 05:32:18 67° 118° (ESE) 05:36:57 437.025 FM, 437.400 FM
AO-Echo 03 Sep 05:29:03 05:30:30 11° 297° (WNW) 05:31:57 ?
SO-50 03 Sep 05:31:41 05:33:45 13° 318° (NW) 05:35:49 436.795 FM
JAS-1B 03 Sep 05:44:26 05:48:42 19° 302° (WNW) 05:52:40 435.800 - 435.900 CW/SSB
Gurwin Techsat 1B 03 Sep 05:47:38 05:51:40 23° 294° (WNW) 05:55:43 435.225 FM
Uosat F 03 Sep 06:19:46 06:24:46 76° 285° (WNW) 06:29:46 435.120 FM
AO-7 03 Sep 06:27:09 06:35:29 87° 288° (WNW) 06:43:46 29.400 - 29.500 MHz
TMSAT-1 03 Sep 06:39:13 06:40:25 11° 300° (WNW) 06:41:37 436.925 FM
Hamsat 03 Sep 06:39:58 06:42:39 16° 92° (E) 06:45:19 145.90 MHz
RS-15 03 Sep 06:48:19 06:57:21 30° 104° (ESE) 07:06:12 29.354 - 29.394 USB, Beacon 29.352 USB
OPAL 03 Sep 07:02:47 07:03:33 10° 268° (W) 07:04:19 ?
STRAND 1 03 Sep 07:09:20 07:14:00 38° 70° (ENE) 07:18:42 ?
UOSAT-12 03 Sep 07:10:04 07:12:55 16° 316° (NW) 07:15:49 437.025 FM, 437.400 FM
JAS-2 03 Sep 07:19:42 07:24:51 45° 100° (E) 07:30:29 435.800 - 435.900 CW/SSB, 435.910 FM
Saudisat 1A 03 Sep 07:23:18 07:27:34 45° 55° (NE) 07:31:47 436.775 MHz
KITSAT 1 03 Sep 07:36:25 07:42:55 26° 44° (NE) 07:49:22 435.175 FM
SO-67 03 Sep 08:09:03 08:11:39 20° 95° (E) 08:14:13 435.3500 MHz FM
Hamsat 03 Sep 08:14:44 08:18:46 38° 288° (WNW) 08:22:44 145.90 MHz
AO-7 03 Sep 08:21:53 08:27:07 19° 307° (NW) 08:32:20 29.400 - 29.500 MHz
STRAND 1 03 Sep 08:49:21 08:53:17 22° 265° (W) 08:57:13 ?
RS-15 03 Sep 08:57:43 09:08:46 69° 304° (NW) 09:19:40 29.354 - 29.394 USB, Beacon 29.352 USB
ISS 03 Sep 08:58:21 09:00:35 17° 129° (SE) 09:02:50 145.800 FM
Saudisat 1A 03 Sep 09:04:01 09:06:45 16° 251° (WSW) 09:09:30 436.775 MHz
JAS-2 03 Sep 09:05:45 09:09:43 22° 293° (WNW) 09:13:55 435.800 - 435.900 CW/SSB, 435.910 FM
KITSAT 1 03 Sep 09:31:03 09:39:08 78° 244° (WSW) 09:47:09 435.175 FM
SO-67 03 Sep 09:42:03 09:44:34 19° 289° (WNW) 09:47:05 435.3500 MHz FM
HO-68 03 Sep 09:48:08 09:53:56 26° 95° (E) 09:59:41 435.675 MHz FM
UKube-1 03 Sep 10:19:06 10:22:06 18° 94° (E) 10:25:05 145.840 MHz, 145.915 MHz
Oscar 11 03 Sep 10:22:04 10:24:01 13° 92° (E) 10:25:58 145.825 FM, Beacon 2401.500 USB
ISS 03 Sep 10:33:53 10:37:04 43° 325° (NW) 10:40:16 145.800 FM
FUNcube-1 03 Sep 10:58:02 11:00:19 14° 92° (E) 11:02:36 145.950 - 145.970 MHz USB
PANSAT 03 Sep 11:04:07 11:06:27 15° 167° (SSE) 11:08:47 not established
RS-15 03 Sep 11:15:36 11:23:36 22° 331° (NNW) 11:31:38 29.354 - 29.394 USB, Beacon 29.352 USB
KITSAT 1 03 Sep 11:30:11 11:33:11 13° 261° (W) 11:36:12 435.175 FM
HO-68 03 Sep 11:34:58 11:41:54 55° 291° (WNW) 11:48:49 435.675 MHz FM
UKube-1 03 Sep 11:54:26 11:58:23 35° 289° (WNW) 12:02:19 145.840 MHz, 145.915 MHz
Oscar 11 03 Sep 11:56:14 12:00:28 49° 286° (WNW) 12:04:40 145.825 FM, Beacon 2401.500 USB
ISS 03 Sep 12:13:36 12:14:30 11° 343° (NNW) 12:15:24 145.800 FM
SO-50 03 Sep 12:21:31 12:26:07 44° 55° (NE) 12:30:45 436.795 FM
FUNcube-1 03 Sep 12:32:30 12:36:57 52° 286° (WNW) 12:41:26 145.950 - 145.970 MHz USB
MaSat-1 03 Sep 12:35:37 12:39:50 30° 105° (ESE) 12:44:16 437.345 MHz
PANSAT 03 Sep 12:43:04 12:46:03 21° 180° (S) 12:49:01 not established
JAS-1B 03 Sep 12:51:10 12:51:56 10° 52° (NE) 12:52:41 435.800 - 435.900 CW/SSB
Oscar 19 03 Sep 13:25:24 13:29:04 20° 65° (ENE) 13:32:45 437.125 CW, 437.150 USB
RS-15 03 Sep 13:36:16 13:42:04 15° 9° (N) 13:47:56 29.354 - 29.394 USB, Beacon 29.352 USB
UOSAT-12 03 Sep 13:59:26 14:03:46 34° 52° (NE) 14:08:01 437.025 FM, 437.400 FM
Oscar 16 03 Sep 13:59:33 14:04:25 43° 71° (ENE) 14:09:18 437.025 USB, Beacon 2401.1428
SO-50 03 Sep 14:02:52 14:06:23 20° 250° (WSW) 14:09:55 436.795 FM
ITAMSAT 1 03 Sep 14:06:39 14:10:29 21° 65° (ENE) 14:14:19 435.822 SSB
MaSat-1 03 Sep 14:12:20 14:16:45 32° 302° (WNW) 14:21:20 437.345 MHz
Uribyol 2 03 Sep 14:15:01 14:19:18 27° 67° (ENE) 14:23:36 436.500 FM
PANSAT 03 Sep 14:23:17 14:25:39 16° 193° (SSW) 14:28:01 not established
JAS-1B 03 Sep 14:31:33 14:40:47 52° 69° (ENE) 14:49:01 435.800 - 435.900 CW/SSB
AO-27 03 Sep 14:35:36 14:40:24 41° 70° (ENE) 14:45:14 436.795 MHz FM
TMSAT-1 03 Sep 14:38:12 14:40:50 14° 62° (ENE) 14:43:29 436.925 FM
AO-Echo 03 Sep 14:58:29 15:03:29 75° 75° (ENE) 15:08:20 ?
Oscar 19 03 Sep 15:03:05 15:08:01 47° 261° (W) 15:13:02 437.125 CW, 437.150 USB
Gurwin Techsat 1B 03 Sep 15:26:06 15:31:16 55° 73° (ENE) 15:36:26 435.225 FM
ISS 03 Sep 15:28:18 15:30:29 16° 24° (NNE) 15:32:40 145.800 FM
AO-7 03 Sep 15:34:00 15:40:02 23° 55° (NE) 15:46:03 29.400 - 29.500 MHz
UOSAT-12 03 Sep 15:39:54 15:43:44 25° 249° (WSW) 15:47:31 437.025 FM, 437.400 FM
Oscar 16 03 Sep 15:40:11 15:43:55 20° 266° (W) 15:47:42 437.025 USB, Beacon 2401.1428
ITAMSAT 1 03 Sep 15:44:46 15:49:39 43° 261° (W) 15:54:34 435.822 SSB
RS-15 03 Sep 15:49:21 15:59:15 36° 42° (NE) 16:09:24 29.354 - 29.394 USB, Beacon 29.352 USB
Uribyol 2 03 Sep 15:54:02 15:58:37 33° 263° (W) 16:03:15 436.500 FM
Uosat F 03 Sep 15:55:28 15:57:52 14° 62° (ENE) 16:00:15 435.120 FM
TMSAT-1 03 Sep 16:14:51 16:20:07 71° 258° (WSW) 16:25:25 436.925 FM
AO-27 03 Sep 16:16:09 16:20:02 21° 266° (W) 16:23:57 436.795 MHz FM
Sapphire 03 Sep 16:17:34 16:22:15 31° 109° (ESE) 16:26:57 437.095 MHz 1200 baud AX-25 AFSK
JAS-1B 03 Sep 16:22:25 16:31:15 38° 263° (W) 16:39:19 435.800 - 435.900 CW/SSB
AO-Echo 03 Sep 16:42:13 16:42:41 10° 269° (W) 16:43:08 ?
PCSat 03 Sep 16:45:48 16:51:07 62° 114° (ESE) 16:56:28 145.825 MHz
ISS 03 Sep 17:04:14 17:07:34 78° 222° (SW) 17:10:52 145.800 FM
Gurwin Techsat 1B 03 Sep 17:08:16 17:11:32 16° 268° (W) 17:14:49 435.225 FM
AO-7 03 Sep 17:23:35 17:31:55 79° 254° (WSW) 17:40:17 29.400 - 29.500 MHz
Uosat F 03 Sep 17:31:05 17:36:03 67° 258° (WSW) 17:41:03 435.120 FM
OPAL 03 Sep 17:31:36 17:35:51 25° 97° (E) 17:40:03 ?
JAS-2 03 Sep 17:32:49 17:36:00 15° 64° (ENE) 17:39:04 435.800 - 435.900 CW/SSB, 435.910 FM
Sapphire 03 Sep 18:00:42 18:05:34 34° 305° (NW) 18:10:29 437.095 MHz 1200 baud AX-25 AFSK
RS-15 03 Sep 18:01:26 18:12:28 71° 245° (WSW) 18:23:59 29.354 - 29.394 USB, Beacon 29.352 USB
PCSat 03 Sep 18:31:08 18:34:58 19° 311° (NW) 18:38:49 145.825 MHz
Hamsat 03 Sep 19:05:28 19:09:46 71° 259° (W) 19:14:08 145.90 MHz
